Location: Kearney
(40.6990°N, 99.0810°W)
Time: 00:47:23
(UTC-05:00)

Cosmos 1697 Rocket - Pass Details

Date: 18 December 2017
Orbit: 832 x 844 km, 71.0° (Epoch: 25 April)

Event Time Altitude Azimuth Distance (km) Brightness Sun altitude
Rises 18:42:05 0° 211° (SSW) 3,381 6.6 -16.6°
Reaches altitude 10° 18:44:33 10° 215° (SW) 2,449 5.9 -17.1°
Maximum altitude 18:50:06 62° 296° (WNW) 939 3.1 -18.1°
Enters shadow 18:55:23 12° 17° (NNE) 2,344 4.7 -19.0°
